Flag for Germany Weather past 2 weeks in Wesseling, North Rhine-Westphalia, Germany

Now
55 °F

Overcast.


Feels Like: 55 °F
Forecast: 48 / 69 °F
Wind: 3 mph from Northwest

Location: Koeln / Bonn

Current Time: May 30, 2015 at 7:03:48 PM

Latest Report: May 30, 2015 at 6:00 PM


Visibility: 37 mi

Pressure: 30.05 "Hg

Humidity: 64%

Dew point: 43 °F

Location of WesselingLocation

Historic Weather in Wesseling — Graph

°F

Wesseling temperature yesterday

Maximum temperature yesterday: 63 °F (at 5:00 PM)
Minimum temperature yesterday: 47 °F (at 6:00 AM)
Average temperature yesterday: 56 °F

Past Weeks' High & Low Weather Summary

 TemperatureHumidityPressure
High73 °F (May 18, 4:00 PM)100% (May 17, 3:00 AM)30.34 "Hg (May 17, 3:00 AM)
Low40 °F (May 21, 6:00 AM)34% (May 22, 2:00 PM)29.66 "Hg (May 18, 8:00 PM)
Average55 °F68%30.07 "Hg
* Reported May 15 6:00 PM — May 30 6:00 PM, Wesseling, Weather by CustomWeather, © 2015

Note: Actual official high and low records may vary slightly from our data, if they occured in-between our weather recording intervals... More about our weather records

Advertising

Wesseling weather history for previous 24 hours

 ConditionsComfort  
Time TempWeatherWind HumidityBarometerVisibility
6:00 PM
Sat, May 30
55 °FOvercast.3 mph64%30.05 "Hg37 mi
5:00 PM53 °FOvercast.2 mph64%30.03 "Hg37 mi
4:00 PM55 °FOvercast.5 mph63%30.02 "Hg37 mi
3:00 PM51 °FOvercast.12 mph68%30.01 "Hg43 mi
2:00 PM61 °FPartly sunny.9 mph44%29.96 "Hg43 mi
1:00 PM60 °FPartly sunny.8 mph45%29.95 "Hg47 mi
12:00 PM59 °FScattered clouds.7 mph49%29.95 "Hg47 mi
11:00 AM58 °FPartly sunny.7 mph55%29.95 "Hg37 mi
10:00 AM54 °FPartly sunny.5 mph67%29.93 "Hg31 mi
9:00 AM52 °FScattered clouds.5 mph82%29.92 "Hg22 mi
8:00 AM51 °FScattered clouds.3 mph88%29.90 "Hg19 mi
7:00 AM49 °FPartly sunny.2 mph94%29.90 "Hg22 mi
6:00 AM49 °FSprinkles. Overcast.2 mph90%29.88 "Hg22 mi
5:00 AM48 °FPassing clouds.3 mph94%29.85 "Hg19 mi
4:00 AM48 °FOvercast.5 mph94%29.84 "Hg22 mi
3:00 AM48 °FLight rain. Overcast.1 mph96%29.83 "Hg22 mi
2:00 AM47 °FOvercast.2 mph97%29.83 "Hg28 mi
1:00 AM48 °FRain. Overcast.1 mph95%29.84 "Hg16 mi
12:00 AM48 °FLight rain. Overcast.5 mph93%29.84 "Hg6 mi
11:00 PM
Fri, May 29
58 °FLight rain. Overcast.7 mph57%29.79 "Hg22 mi
10:00 PM59 °FOvercast.5 mph52%29.79 "Hg25 mi
9:00 PM60 °FOvercast.6 mph50%29.79 "Hg28 mi
8:00 PM61 °FOvercast.6 mph46%29.78 "Hg25 mi
7:00 PM62 °FOvercast.7 mph46%29.77 "Hg31 mi
Weather by CustomWeather, © 2015

See weather overviewHow to use our weather pages